Location: Newark
(44.1667°N, 8.2500°E)
Time: 19:55:55
(UTC+00:00)

Vanguard 2 - Pass Details

Date: 10 December 2019
Orbit: 553 x 2938 km, 32.9° (Epoch: 28 January)

Event Time Altitude Azimuth Distance (km) Brightness Sun altitude
Exits shadow 03:53:17 37° 240° (WSW) 3,976 10.6 -30.9°
Maximum altitude 04:01:12 56° 186° (S) 3,241 10.5 -29.5°
Drops below altitude 10° 04:15:56 10° 114° (ESE) 4,937 12.5 -26.9°
Sets 04:19:21 0° 110° (ESE) 5,680 13.2 -26.3°
